Wetterdaten: Sonntag, 10.01.2016
Datum Zeit Temp. A. Feuchte A. Luftdruck Regen Wind Richtung Richtung Sonnenschein ET UV Solar Taupunkt Windchill Windben Empfang
10.01.2016 00:00 0,4 C 98 % 1004,1 hPa 0,0 l/m 4,7 km/h (1 Bft) NO 51 0 min 0,000 mm 0,0 UV-I 0 W/m 0,1 C 0,4 C 8,0 km/h (2 Bft) 100,00 %
10.01.2016 00:05 0,4 C 98 % 1004,1 hPa 0,0 l/m 5,3 km/h (1 Bft) O-NO 58 0 min 0,000 mm 0,0 UV-I 0 W/m 0,1 C 0,4 C 8,0 km/h (2 Bft) 99,11 %
10.01.2016 00:10 0,5 C 98 % 1004,1 hPa 0,0 l/m 4,8 km/h (1 Bft) O-NO 59 0 min 0,000 mm 0,0 UV-I 0 W/m 0,2 C 0,5 C 8,0 km/h (2 Bft) 99,17 %
10.01.2016 00:15 0,4 C 98 % 1004,1 hPa 0,0 l/m 4,1 km/h (1 Bft) O-NO 70 0 min 0,000 mm 0,0 UV-I 0 W/m 0,1 C 0,4 C 6,4 km/h (2 Bft) 98,31 %
10.01.2016 00:20 0,4 C 98 % 1004,1 hPa 0,0 l/m 3,8 km/h (1 Bft) O 83 0 min 0,000 mm 0,0 UV-I 0 W/m 0,1 C 0,4 C 4,8 km/h (1 Bft) 99,15 %
10.01.2016 00:25 0,5 C 98 % 1004,0 hPa 0,0 l/m 5,8 km/h (2 Bft) O-NO 68 0 min 0,000 mm 0,0 UV-I 0 W/m 0,2 C 0,5 C 11,3 km/h (2 Bft) 99,08 %
10.01.2016 00:30 0,5 C 98 % 1004,0 hPa 0,0 l/m 5,2 km/h (1 Bft) O 88 0 min 0,000 mm 0,0 UV-I 0 W/m 0,2 C 0,5 C 8,0 km/h (2 Bft) 100,00 %
10.01.2016 00:36 0,5 C 98 % 1004,0 hPa 0,0 l/m 4,0 km/h (1 Bft) O 82 0 min 0,000 mm 0,0 UV-I 0 W/m 0,2 C 0,5 C 8,0 km/h (2 Bft) 100,00 %
10.01.2016 00:40 0,5 C 98 % 1003,9 hPa 0,0 l/m 4,0 km/h (1 Bft) NO 47 0 min 0,000 mm 0,0 UV-I 0 W/m 0,2 C 0,5 C 6,4 km/h (2 Bft) 94,68 %
10.01.2016 00:45 0,5 C 98 % 1003,8 hPa 0,0 l/m 3,3 km/h (1 Bft) NO 46 0 min 0,000 mm 0,0 UV-I 0 W/m 0,2 C 0,5 C 6,4 km/h (2 Bft) 97,46 %
10.01.2016 00:50 0,5 C 98 % 1003,8 hPa 0,0 l/m 3,4 km/h (1 Bft) NO 39 0 min 0,000 mm 0,0 UV-I 0 W/m 0,2 C 0,5 C 4,8 km/h (1 Bft) 96,58 %
10.01.2016 00:55 0,5 C 98 % 1003,6 hPa 0,0 l/m 4,0 km/h (1 Bft) NO 40 0 min 0,000 mm 0,0 UV-I 0 W/m 0,2 C 0,5 C 6,4 km/h (2 Bft) 95,76 %
10.01.2016 01:00 0,5 C 98 % 1003,6 hPa 0,0 l/m 4,7 km/h (1 Bft) O-NO 64 0 min 0,000 mm 0,0 UV-I 0 W/m 0,2 C 0,5 C 8,0 km/h (2 Bft) 95,73 %
10.01.2016 01:05 0,5 C 98 % 1003,6 hPa 0,2 l/m 5,5 km/h (1 Bft) O-NO 60 0 min 0,000 mm 0,0 UV-I 0 W/m 0,2 C 0,5 C 8,0 km/h (2 Bft) 97,46 %
10.01.2016 01:10 0,5 C 98 % 1003,6 hPa 0,0 l/m 5,9 km/h (2 Bft) O-NO 58 0 min 0,000 mm 0,0 UV-I 0 W/m 0,2 C 0,5 C 9,7 km/h (2 Bft) 98,31 %
10.01.2016 01:15 0,5 C 98 % 1003,5 hPa 0,0 l/m 4,6 km/h (1 Bft) O-NO 61 0 min 0,000 mm 0,0 UV-I 0 W/m 0,2 C 0,5 C 8,0 km/h (2 Bft) 98,20 %
10.01.2016 01:20 0,5 C 98 % 1003,4 hPa 0,0 l/m 4,4 km/h (1 Bft) O-NO 63 0 min 0,000 mm 0,0 UV-I 0 W/m 0,2 C 0,5 C 6,4 km/h (2 Bft) 99,15 %
10.01.2016 01:25 0,5 C 98 % 1003,4 hPa 0,0 l/m 4,2 km/h (1 Bft) O-NO 75 0 min 0,000 mm 0,0 UV-I 0 W/m 0,2 C 0,5 C 6,4 km/h (2 Bft) 97,46 %
10.01.2016 01:30 0,5 C 98 % 1003,4 hPa 0,0 l/m 3,9 km/h (1 Bft) O-NO 78 0 min 0,000 mm 0,0 UV-I 0 W/m 0,2 C 0,5 C 6,4 km/h (2 Bft) 99,19 %
10.01.2016 01:35 0,5 C 98 % 1003,4 hPa 0,0 l/m 4,9 km/h (1 Bft) O-NO 77 0 min 0,000 mm 0,0 UV-I 0 W/m 0,2 C 0,5 C 8,0 km/h (2 Bft) 99,16 %
10.01.2016 01:40 0,4 C 98 % 1003,4 hPa 0,2 l/m 5,6 km/h (1 Bft) O-NO 78 0 min 0,000 mm 0,0 UV-I 0 W/m 0,1 C 0,4 C 11,3 km/h (2 Bft) 100,00 %
10.01.2016 01:45 0,5 C 98 % 1003,3 hPa 0,0 l/m 4,7 km/h (1 Bft) O-NO 72 0 min 0,000 mm 0,0 UV-I 0 W/m 0,2 C 0,5 C 8,0 km/h (2 Bft) 99,17 %
10.01.2016 01:50 0,5 C 98 % 1003,3 hPa 0,0 l/m 5,3 km/h (1 Bft) O 88 0 min 0,000 mm 0,0 UV-I 0 W/m 0,2 C 0,5 C 8,0 km/h (2 Bft) 99,15 %
10.01.2016 01:55 0,5 C 98 % 1003,3 hPa 0,0 l/m 5,1 km/h (1 Bft) O-NO 74 0 min 0,000 mm 0,0 UV-I 0 W/m 0,2 C 0,5 C 8,0 km/h (2 Bft) 99,15 %
10.01.2016 02:00 0,5 C 98 % 1003,3 hPa 0,0 l/m 4,0 km/h (1 Bft) O-NO 71 0 min 0,000 mm 0,0 UV-I 0 W/m 0,2 C 0,5 C 6,4 km/h (2 Bft) 100,00 %
10.01.2016 02:05 0,5 C 98 % 1003,4 hPa 0,0 l/m 2,9 km/h (1 Bft) O-NO 63 0 min 0,000 mm 0,0 UV-I 0 W/m 0,2 C 0,5 C 4,8 km/h (1 Bft) 99,08 %
10.01.2016 02:10 0,5 C 98 % 1003,4 hPa 0,0 l/m 3,4 km/h (1 Bft) O 80 0 min 0,000 mm 0,0 UV-I 0 W/m 0,2 C 0,5 C 6,4 km/h (2 Bft) 99,17 %
10.01.2016 02:15 0,5 C 98 % 1003,5 hPa 0,0 l/m 1,3 km/h (1 Bft) O 80 0 min 0,000 mm 0,0 UV-I 0 W/m 0,2 C 0,5 C 3,2 km/h (1 Bft) 98,35 %
10.01.2016 02:20 0,5 C 98 % 1003,6 hPa 0,0 l/m 0,0 km/h (0 Bft) O 80 0 min 0,000 mm 0,0 UV-I 0 W/m 0,2 C 0,5 C 1,6 km/h (1 Bft) 100,00 %
10.01.2016 02:25 0,5 C 98 % 1003,4 hPa 0,0 l/m 3,3 km/h (1 Bft) O-SO 118 0 min 0,000 mm 0,0 UV-I 0 W/m 0,2 C 0,5 C 6,4 km/h (2 Bft) 99,08 %
10.01.2016 02:30 0,5 C 98 % 1003,3 hPa 0,2 l/m 2,7 km/h (1 Bft) O 88 0 min 0,000 mm 0,0 UV-I 0 W/m 0,2 C 0,5 C 6,4 km/h (2 Bft) 98,35 %
10.01.2016 02:35 0,5 C 98 % 1003,2 hPa 0,0 l/m 4,2 km/h (1 Bft) O-NO 78 0 min 0,000 mm 0,0 UV-I 0 W/m 0,2 C 0,5 C 9,7 km/h (2 Bft) 97,44 %
10.01.2016 02:40 0,6 C 98 % 1002,9 hPa 0,0 l/m 9,5 km/h (2 Bft) O 80 0 min 0,000 mm 0,0 UV-I 0 W/m 0,3 C -2,4 C 14,5 km/h (3 Bft) 98,32 %
10.01.2016 02:45 0,5 C 98 % 1002,8 hPa 0,0 l/m 9,2 km/h (2 Bft) O-NO 61 0 min 0,000 mm 0,0 UV-I 0 W/m 0,2 C -2,2 C 16,1 km/h (3 Bft) 97,32 %
10.01.2016 02:50 0,4 C 98 % 1003,0 hPa 0,0 l/m 4,0 km/h (1 Bft) N-NO 25 0 min 0,000 mm 0,0 UV-I 0 W/m 0,1 C 0,4 C 9,7 km/h (2 Bft) 95,83 %
10.01.2016 02:55 0,4 C 98 % 1003,0 hPa 0,0 l/m 2,5 km/h (1 Bft) N-NO 28 0 min 0,000 mm 0,0 UV-I 0 W/m 0,1 C 0,4 C 6,4 km/h (2 Bft) 97,46 %
10.01.2016 03:00 0,5 C 98 % 1002,9 hPa 0,0 l/m 4,3 km/h (1 Bft) O-NO 74 0 min 0,000 mm 0,0 UV-I 0 W/m 0,2 C 0,5 C 6,4 km/h (2 Bft) 95,83 %
10.01.2016 03:05 0,5 C 98 % 1002,8 hPa 0,0 l/m 2,3 km/h (1 Bft) O-NO 62 0 min 0,000 mm 0,0 UV-I 0 W/m 0,2 C 0,5 C 4,8 km/h (1 Bft) 97,25 %
10.01.2016 03:10 0,5 C 98 % 1002,6 hPa 0,0 l/m 3,8 km/h (1 Bft) NO 46 0 min 0,000 mm 0,0 UV-I 0 W/m 0,2 C 0,5 C 6,4 km/h (2 Bft) 96,61 %
10.01.2016 03:15 0,5 C 98 % 1002,5 hPa 0,0 l/m 5,0 km/h (1 Bft) NO 49 0 min 0,000 mm 0,0 UV-I 0 W/m 0,2 C 0,5 C 8,0 km/h (2 Bft) 96,58 %
10.01.2016 03:20 0,5 C 98 % 1002,6 hPa 0,0 l/m 6,2 km/h (2 Bft) NO 50 0 min 0,000 mm 0,0 UV-I 0 W/m 0,2 C 0,5 C 11,3 km/h (2 Bft) 96,61 %
10.01.2016 03:25 0,5 C 98 % 1002,6 hPa 0,0 l/m 3,8 km/h (1 Bft) O-NO 78 0 min 0,000 mm 0,0 UV-I 0 W/m 0,2 C 0,5 C 6,4 km/h (2 Bft) 99,15 %
10.01.2016 03:30 0,5 C 98 % 1002,7 hPa 0,0 l/m 2,8 km/h (1 Bft) O-NO 57 0 min 0,000 mm 0,0 UV-I 0 W/m 0,2 C 0,5 C 4,8 km/h (1 Bft) 100,00 %
10.01.2016 03:35 0,5 C 98 % 1002,7 hPa 0,0 l/m 2,7 km/h (1 Bft) O-NO 57 0 min 0,000 mm 0,0 UV-I 0 W/m 0,2 C 0,5 C 4,8 km/h (1 Bft) 99,15 %
10.01.2016 03:40 0,5 C 98 % 1002,5 hPa 0,0 l/m 5,2 km/h (1 Bft) NO 54 0 min 0,000 mm 0,0 UV-I 0 W/m 0,2 C 0,5 C 9,7 km/h (2 Bft) 99,15 %
10.01.2016 03:45 0,5 C 98 % 1002,5 hPa 0,0 l/m 8,0 km/h (2 Bft) O-NO 57 0 min 0,000 mm 0,0 UV-I 0 W/m 0,2 C -1,1 C 9,7 km/h (2 Bft) 99,11 %
10.01.2016 03:50 0,5 C 98 % 1002,3 hPa 0,0 l/m 5,9 km/h (2 Bft) NO 55 0 min 0,000 mm 0,0 UV-I 0 W/m 0,2 C 0,5 C 8,0 km/h (2 Bft) 99,15 %
10.01.2016 03:55 0,4 C 98 % 1002,3 hPa 0,0 l/m 6,8 km/h (2 Bft) NO 35 0 min 0,000 mm 0,0 UV-I 0 W/m 0,1 C 0,0 C 9,7 km/h (2 Bft) 99,15 %
10.01.2016 04:00 0,4 C 98 % 1002,4 hPa 0,0 l/m 3,7 km/h (1 Bft) N-NO 24 0 min 0,000 mm 0,0 UV-I 0 W/m 0,1 C 0,4 C 6,4 km/h (2 Bft) 98,31 %
10.01.2016 04:05 0,4 C 98 % 1002,5 hPa 0,0 l/m 0,9 km/h (0 Bft) N-NO 13 0 min 0,000 mm 0,0 UV-I 0 W/m 0,1 C 0,4 C 3,2 km/h (1 Bft) 100,00 %
10.01.2016 04:10 0,4 C 98 % 1002,5 hPa 0,0 l/m 0,6 km/h (0 Bft) N-NO 13 0 min 0,000 mm 0,0 UV-I 0 W/m 0,1 C 0,4 C 4,8 km/h (1 Bft) 98,29 %
10.01.2016 04:15 0,4 C 98 % 1002,5 hPa 0,0 l/m 2,1 km/h (1 Bft) N-NO 28 0 min 0,000 mm 0,0 UV-I 0 W/m 0,1 C 0,4 C 6,4 km/h (2 Bft) 100,00 %
10.01.2016 04:20 0,4 C 98 % 1002,5 hPa 0,0 l/m 2,4 km/h (1 Bft) N-NO 28 0 min 0,000 mm 0,0 UV-I 0 W/m 0,1 C 0,4 C 4,8 km/h (1 Bft) 99,17 %
10.01.2016 04:25 0,4 C 98 % 1002,4 hPa 0,0 l/m 3,3 km/h (1 Bft) NO 39 0 min 0,000 mm 0,0 UV-I 0 W/m 0,1 C 0,4 C 6,4 km/h (2 Bft) 97,46 %
10.01.2016 04:30 0,5 C 98 % 1002,3 hPa 0,0 l/m 4,1 km/h (1 Bft) N-NO 20 0 min 0,000 mm 0,0 UV-I 0 W/m 0,2 C 0,5 C 8,0 km/h (2 Bft) 99,15 %
10.01.2016 04:35 0,4 C 98 % 1002,3 hPa 0,0 l/m 3,8 km/h (1 Bft) N-NO 24 0 min 0,000 mm 0,0 UV-I 0 W/m 0,1 C 0,4 C 8,0 km/h (2 Bft) 98,29 %
10.01.2016 04:40 0,4 C 98 % 1002,3 hPa 0,0 l/m 4,7 km/h (1 Bft) NO 42 0 min 0,000 mm 0,0 UV-I 0 W/m 0,1 C 0,4 C 8,0 km/h (2 Bft) 100,00 %
10.01.2016 04:45 0,4 C 98 % 1002,4 hPa 0,0 l/m 1,8 km/h (1 Bft) NO 42 0 min 0,000 mm 0,0 UV-I 0 W/m 0,1 C 0,4 C 4,8 km/h (1 Bft) 97,52 %
10.01.2016 04:50 0,4 C 98 % 1002,3 hPa 0,0 l/m 3,1 km/h (1 Bft) NO 34 0 min 0,000 mm 0,0 UV-I 0 W/m 0,1 C 0,4 C 4,8 km/h (1 Bft) 97,50 %
10.01.2016 04:55 0,5 C 98 % 1002,2 hPa 0,0 l/m 3,6 km/h (1 Bft) NO 43 0 min 0,000 mm 0,0 UV-I 0 W/m 0,2 C 0,5 C 6,4 km/h (2 Bft) 96,61 %
10.01.2016 05:00 0,5 C 98 % 1002,2 hPa 0,0 l/m 0,9 km/h (0 Bft) NO 43 0 min 0,000 mm 0,0 UV-I 0 W/m 0,2 C 0,5 C 4,8 km/h (1 Bft) 97,32 %
10.01.2016 05:05 0,4 C 98 % 1002,1 hPa 0,0 l/m 4,4 km/h (1 Bft) NO 46 0 min 0,000 mm 0,0 UV-I 0 W/m 0,1 C 0,4 C 8,0 km/h (2 Bft) 98,31 %
10.01.2016 05:10 0,4 C 98 % 1001,9 hPa 0,0 l/m 7,2 km/h (2 Bft) N-NO 31 0 min 0,000 mm 0,0 UV-I 0 W/m 0,1 C -0,4 C 9,7 km/h (2 Bft) 96,67 %
10.01.2016 05:15 0,4 C 98 % 1002,0 hPa 0,0 l/m 6,4 km/h (2 Bft) NO 45 0 min 0,000 mm 0,0 UV-I 0 W/m 0,1 C 0,4 C 8,0 km/h (2 Bft) 95,76 %
10.01.2016 05:20 0,4 C 98 % 1002,1 hPa 0,0 l/m 4,1 km/h (1 Bft) NO 36 0 min 0,000 mm 0,0 UV-I 0 W/m 0,1 C 0,4 C 6,4 km/h (2 Bft) 98,17 %
10.01.2016 05:25 0,5 C 98 % 1002,1 hPa 0,0 l/m 3,2 km/h (1 Bft) NO 36 0 min 0,000 mm 0,0 UV-I 0 W/m 0,2 C 0,5 C 4,8 km/h (1 Bft) 98,32 %
10.01.2016 05:30 0,5 C 98 % 1002,2 hPa 0,0 l/m 3,9 km/h (1 Bft) NO 46 0 min 0,000 mm 0,0 UV-I 0 W/m 0,2 C 0,5 C 8,0 km/h (2 Bft) 98,33 %
10.01.2016 05:35 0,4 C 98 % 1002,2 hPa 0,0 l/m 3,8 km/h (1 Bft) O-NO 64 0 min 0,000 mm 0,0 UV-I 0 W/m 0,1 C 0,4 C 6,4 km/h (2 Bft) 98,31 %
10.01.2016 05:40 0,4 C 98 % 1002,2 hPa 0,0 l/m 4,7 km/h (1 Bft) O-NO 73 0 min 0,000 mm 0,0 UV-I 0 W/m 0,1 C 0,4 C 6,4 km/h (2 Bft) 98,29 %
10.01.2016 05:45 0,4 C 98 % 1002,2 hPa 0,0 l/m 3,7 km/h (1 Bft) O 86 0 min 0,000 mm 0,0 UV-I 0 W/m 0,1 C 0,4 C 4,8 km/h (1 Bft) 98,17 %
10.01.2016 05:50 0,4 C 98 % 1002,2 hPa 0,0 l/m 3,0 km/h (1 Bft) O-NO 67 0 min 0,000 mm 0,0 UV-I 0 W/m 0,1 C 0,4 C 6,4 km/h (2 Bft) 100,00 %
10.01.2016 05:55 0,4 C 98 % 1002,2 hPa 0,0 l/m 1,2 km/h (1 Bft) O-NO 67 0 min 0,000 mm 0,0 UV-I 0 W/m 0,1 C 0,4 C 3,2 km/h (1 Bft) 99,17 %
10.01.2016 06:00 0,4 C 98 % 1002,3 hPa 0,0 l/m 3,0 km/h (1 Bft) O-NO 67 0 min 0,000 mm 0,0 UV-I 0 W/m 0,1 C 0,4 C 4,8 km/h (1 Bft) 97,46 %
10.01.2016 06:05 0,4 C 98 % 1002,3 hPa 0,0 l/m 1,7 km/h (1 Bft) O-NO 67 0 min 0,000 mm 0,0 UV-I 0 W/m 0,1 C 0,4 C 4,8 km/h (1 Bft) 100,00 %
10.01.2016 06:10 0,4 C 98 % 1002,1 hPa 0,0 l/m 2,4 km/h (1 Bft) O-NO 67 0 min 0,000 mm 0,0 UV-I 0 W/m 0,1 C 0,4 C 3,2 km/h (1 Bft) 99,15 %
10.01.2016 06:15 0,4 C 98 % 1002,2 hPa 0,0 l/m 3,5 km/h (1 Bft) O-NO 67 0 min 0,000 mm 0,0 UV-I 0 W/m 0,1 C 0,4 C 4,8 km/h (1 Bft) 98,31 %
10.01.2016 06:20 0,4 C 98 % 1002,1 hPa 0,0 l/m 3,2 km/h (1 Bft) O-NO 67 0 min 0,000 mm 0,0 UV-I 0 W/m 0,1 C 0,4 C 4,8 km/h (1 Bft) 98,29 %
10.01.2016 06:25 0,4 C 98 % 1002,1 hPa 0,0 l/m 2,0 km/h (1 Bft) O-NO 67 0 min 0,000 mm 0,0 UV-I 0 W/m 0,1 C 0,4 C 3,2 km/h (1 Bft) 99,15 %
10.01.2016 06:30 0,4 C 98 % 1002,1 hPa 0,0 l/m 1,1 km/h (1 Bft) O-NO 67 0 min 0,000 mm 0,0 UV-I 0 W/m 0,1 C 0,4 C 3,2 km/h (1 Bft) 97,46 %
10.01.2016 06:35 0,4 C 98 % 1002,2 hPa 0,0 l/m 0,0 km/h (0 Bft) O-NO 67 0 min 0,000 mm 0,0 UV-I 0 W/m 0,1 C 0,4 C 1,6 km/h (1 Bft) 99,07 %
10.01.2016 06:40 0,4 C 98 % 1002,2 hPa 0,0 l/m 0,1 km/h (0 Bft) O-NO 67 0 min 0,000 mm 0,0 UV-I 0 W/m 0,1 C 0,4 C 1,6 km/h (1 Bft) 99,15 %
10.01.2016 06:45 0,4 C 98 % 1002,2 hPa 0,0 l/m 1,4 km/h (1 Bft) O-NO 67 0 min 0,000 mm 0,0 UV-I 0 W/m 0,1 C 0,4 C 3,2 km/h (1 Bft) 100,00 %
10.01.2016 06:50 0,4 C 98 % 1002,1 hPa 0,0 l/m 0,2 km/h (0 Bft) O-NO 67 0 min 0,000 mm 0,0 UV-I 0 W/m 0,1 C 0,4 C 1,6 km/h (1 Bft) 95,73 %
10.01.2016 06:55 0,4 C 98 % 1002,1 hPa 0,0 l/m 0,6 km/h (0 Bft) O-NO 67 0 min 0,000 mm 0,0 UV-I 0 W/m 0,1 C 0,4 C 3,2 km/h (1 Bft) 97,46 %
10.01.2016 07:00 0,4 C 98 % 1002,1 hPa 0,0 l/m 0,5 km/h (0 Bft) O-NO 67 0 min 0,000 mm 0,0 UV-I 0 W/m 0,1 C 0,4 C 1,6 km/h (1 Bft) 96,61 %
10.01.2016 07:05 0,4 C 98 % 1001,9 hPa 0,0 l/m 0,6 km/h (0 Bft) O-NO 67 0 min 0,000 mm 0,0 UV-I 0 W/m 0,1 C 0,4 C 1,6 km/h (1 Bft) 95,73 %
10.01.2016 07:10 0,4 C 98 % 1002,1 hPa 0,0 l/m 1,9 km/h (1 Bft) O-NO 67 0 min 0,000 mm 0,0 UV-I 0 W/m 0,1 C 0,4 C 3,2 km/h (1 Bft) 97,46 %
10.01.2016 07:15 0,4 C 98 % 1002,1 hPa 0,0 l/m 1,1 km/h (1 Bft) O-NO 67 0 min 0,000 mm 0,0 UV-I 0 W/m 0,1 C 0,4 C 3,2 km/h (1 Bft) 95,00 %
10.01.2016 07:20 0,4 C 98 % 1002,1 hPa 0,0 l/m 0,8 km/h (0 Bft) O-NO 67 0 min 0,000 mm 0,0 UV-I 0 W/m 0,1 C 0,4 C 3,2 km/h (1 Bft) 97,52 %
10.01.2016 07:25 0,4 C 98 % 1002,1 hPa 0,0 l/m 0,8 km/h (0 Bft) O-NO 67 0 min 0,000 mm 0,0 UV-I 0 W/m 0,1 C 0,4 C 3,2 km/h (1 Bft) 97,17 %
10.01.2016 07:30 0,4 C 98 % 1002,2 hPa 0,0 l/m 0,9 km/h (0 Bft) O-NO 73 0 min 0,000 mm 0,0 UV-I 0 W/m 0,1 C 0,4 C 3,2 km/h (1 Bft) 96,58 %
10.01.2016 07:35 0,4 C 98 % 1002,1 hPa 0,0 l/m 0,5 km/h (0 Bft) O-NO 74 0 min 0,000 mm 0,0 UV-I 0 W/m 0,1 C 0,4 C 3,2 km/h (1 Bft) 100,00 %
10.01.2016 07:40 0,4 C 98 % 1002,1 hPa 0,0 l/m 0,9 km/h (0 Bft) O-NO 74 0 min 0,000 mm 0,0 UV-I 0 W/m 0,1 C 0,4 C 3,2 km/h (1 Bft) 97,44 %
10.01.2016 07:45 0,4 C 98 % 1001,9 hPa 0,0 l/m 2,7 km/h (1 Bft) O 86 0 min 0,000 mm 0,0 UV-I 0 W/m 0,1 C 0,4 C 4,8 km/h (1 Bft) 96,61 %
10.01.2016 07:50 0,4 C 98 % 1002,0 hPa 0,0 l/m 1,6 km/h (1 Bft) O 86 0 min 0,000 mm 0,0 UV-I 0 W/m 0,1 C 0,4 C 4,8 km/h (1 Bft) 99,15 %
10.01.2016 07:55 0,4 C 98 % 1001,8 hPa 0,0 l/m 1,5 km/h (1 Bft) O 86 0 min 0,000 mm 0,0 UV-I 0 W/m 0,1 C 0,4 C 3,2 km/h (1 Bft) 100,00 %
10.01.2016 08:00 0,4 C 98 % 1002,0 hPa 0,0 l/m 4,0 km/h (1 Bft) NO 53 0 min 0,000 mm 0,0 UV-I 0 W/m 0,1 C 0,4 C 8,0 km/h (2 Bft) 99,15 %
10.01.2016 08:05 0,4 C 98 % 1001,9 hPa 0,0 l/m 3,2 km/h (1 Bft) O-NO 75 0 min 0,000 mm 0,0 UV-I 2 W/m 0,1 C 0,4 C 8,0 km/h (2 Bft) 99,15 %
10.01.2016 08:10 0,4 C 98 % 1001,9 hPa 0,0 l/m 5,2 km/h (1 Bft) O-NO 73 0 min 0,000 mm 0,0 UV-I 5 W/m 0,1 C 0,4 C 8,0 km/h (2 Bft) 98,33 %
10.01.2016 08:15 0,4 C 98 % 1001,9 hPa 0,0 l/m 1,7 km/h (1 Bft) O-NO 74 0 min 0,000 mm 0,0 UV-I 8 W/m 0,1 C 0,4 C 6,4 km/h (2 Bft) 100,00 %
10.01.2016 08:20 0,4 C 99 % 1001,9 hPa 0,0 l/m 2,7 km/h (1 Bft) O 80 0 min 0,000 mm 0,0 UV-I 12 W/m 0,3 C 0,4 C 4,8 km/h (1 Bft) 98,29 %
10.01.2016 08:25 0,4 C 98 % 1002,0 hPa 0,0 l/m 1,6 km/h (1 Bft) O 80 0 min 0,000 mm 0,0 UV-I 13 W/m 0,1 C 0,4 C 4,8 km/h (1 Bft) 99,15 %
10.01.2016 08:30 0,5 C 98 % 1001,9 hPa 0,0 l/m 1,8 km/h (1 Bft) O 90 0 min 0,000 mm 0,0 UV-I 13 W/m 0,2 C 0,5 C 4,8 km/h (1 Bft) 100,00 %
10.01.2016 08:35 0,5 C 98 % 1001,9 hPa 0,0 l/m 2,1 km/h (1 Bft) O-SO 115 0 min 0,000 mm 0,0 UV-I 21 W/m 0,2 C 0,5 C 4,8 km/h (1 Bft) 97,44 %
10.01.2016 08:40 0,6 C 99 % 1002,1 hPa 0,0 l/m 1,4 km/h (1 Bft) O-NO 75 0 min 0,000 mm 0,0 UV-I 25 W/m 0,5 C 0,6 C 4,8 km/h (1 Bft) 99,17 %
10.01.2016 08:45 0,6 C 99 % 1002,2 hPa 0,0 l/m 0,9 km/h (0 Bft) O 84 0 min 0,000 mm 0,0 UV-I 26 W/m 0,5 C 0,6 C 3,2 km/h (1 Bft) 100,00 %
10.01.2016 08:50 0,6 C 99 % 1002,3 hPa 0,0 l/m 1,4 km/h (1 Bft) O 84 0 min 0,000 mm 0,0 UV-I 32 W/m 0,5 C 0,6 C 3,2 km/h (1 Bft) 100,00 %
10.01.2016 08:55 0,6 C 99 % 1002,3 hPa 0,0 l/m 0,9 km/h (0 Bft) O 84 0 min 0,000 mm 0,0 UV-I 39 W/m 0,5 C 0,6 C 3,2 km/h (1 Bft) 94,50 %
10.01.2016 09:00 0,7 C 99 % 1002,3 hPa 0,0 l/m 2,5 km/h (1 Bft) O 83 0 min 0,000 mm 0,0 UV-I 45 W/m 0,6 C 0,7 C 4,8 km/h (1 Bft) 96,69 %
10.01.2016 09:05 0,7 C 99 % 1002,4 hPa 0,0 l/m 1,6 km/h (1 Bft) O 83 0 min 0,000 mm 0,0 UV-I 58 W/m 0,6 C 0,7 C 4,8 km/h (1 Bft) 98,31 %
10.01.2016 09:10 0,8 C 99 % 1002,3 hPa 0,0 l/m 0,9 km/h (0 Bft) O 83 0 min 0,000 mm 0,0 UV-I 64 W/m 0,7 C 0,8 C 3,2 km/h (1 Bft) 97,46 %
10.01.2016 09:15 0,8 C 99 % 1002,3 hPa 0,0 l/m 1,4 km/h (1 Bft) O 83 0 min 0,000 mm 0,0 UV-I 58 W/m 0,7 C 0,8 C 3,2 km/h (1 Bft) 96,58 %
10.01.2016 09:20 0,8 C 99 % 1002,2 hPa 0,0 l/m 1,9 km/h (1 Bft) O 83 0 min 0,000 mm 0,0 UV-I 54 W/m 0,7 C 0,8 C 3,2 km/h (1 Bft) 96,61 %
10.01.2016 09:25 0,8 C 99 % 1002,0 hPa 0,0 l/m 0,9 km/h (0 Bft) O 83 0 min 0,000 mm 0,0 UV-I 56 W/m 0,7 C 0,8 C 3,2 km/h (1 Bft) 97,25 %
10.01.2016 09:30 0,9 C 99 % 1001,8 hPa 0,0 l/m 3,7 km/h (1 Bft) O 97 0 min 0,000 mm 0,0 UV-I 63 W/m 0,8 C 0,9 C 4,8 km/h (1 Bft) 98,29 %
10.01.2016 09:35 1,0 C 99 % 1001,6 hPa 0,0 l/m 4,9 km/h (1 Bft) O 92 0 min 0,000 mm 0,0 UV-I 57 W/m 0,9 C 1,0 C 8,0 km/h (2 Bft) 99,15 %
10.01.2016 09:40 1,0 C 99 % 1001,7 hPa 0,0 l/m 5,7 km/h (1 Bft) O-SO 112 0 min 0,000 mm 0,0 UV-I 75 W/m 0,9 C 1,0 C 11,3 km/h (2 Bft) 99,17 %
10.01.2016 09:45 1,0 C 99 % 1001,5 hPa 0,0 l/m 4,1 km/h (1 Bft) O 98 0 min 0,000 mm 0,0 UV-I 76 W/m 0,9 C 1,0 C 6,4 km/h (2 Bft) 99,15 %
10.01.2016 09:50 1,0 C 99 % 1001,7 hPa 0,0 l/m 4,1 km/h (1 Bft) O-SO 111 0 min 0,000 mm 0,0 UV-I 79 W/m 0,9 C 1,0 C 9,7 km/h (2 Bft) 97,46 %
10.01.2016 09:55 1,0 C 99 % 1001,7 hPa 0,0 l/m 2,1 km/h (1 Bft) O 80 0 min 0,000 mm 0,0 UV-I 76 W/m 0,9 C 1,0 C 4,8 km/h (1 Bft) 99,10 %
10.01.2016 10:00 1,0 C 99 % 1001,7 hPa 0,0 l/m 2,2 km/h (1 Bft) O-NO 78 0 min 0,025 mm 0,0 UV-I 76 W/m 0,9 C 1,0 C 4,8 km/h (1 Bft) 100,00 %
10.01.2016 10:05 1,1 C 99 % 1001,6 hPa 0,0 l/m 2,9 km/h (1 Bft) O-NO 71 0 min 0,000 mm 0,0 UV-I 72 W/m 1,0 C 1,1 C 6,4 km/h (2 Bft) 98,31 %
10.01.2016 10:10 1,1 C 99 % 1001,8 hPa 0,0 l/m 3,0 km/h (1 Bft) SO 142 0 min 0,000 mm 0,0 UV-I 69 W/m 1,0 C 1,1 C 4,8 km/h (1 Bft) 98,29 %
10.01.2016 10:15 1,1 C 99 % 1001,7 hPa 0,0 l/m 3,9 km/h (1 Bft) O-SO 118 0 min 0,000 mm 0,0 UV-I 60 W/m 1,0 C 1,1 C 6,4 km/h (2 Bft) 99,17 %
10.01.2016 10:20 1,2 C 99 % 1001,5 hPa 0,0 l/m 2,8 km/h (1 Bft) O 83 0 min 0,000 mm 0,0 UV-I 70 W/m 1,1 C 1,2 C 4,8 km/h (1 Bft) 99,17 %
10.01.2016 10:25 1,3 C 99 % 1001,7 hPa 0,0 l/m 2,3 km/h (1 Bft) O-NO 63 0 min 0,000 mm 0,0 UV-I 79 W/m 1,2 C 1,3 C 4,8 km/h (1 Bft) 99,15 %
10.01.2016 10:30 1,3 C 99 % 1001,5 hPa 0,0 l/m 3,8 km/h (1 Bft) O-NO 61 0 min 0,000 mm 0,0 UV-I 86 W/m 1,2 C 1,3 C 6,4 km/h (2 Bft) 100,00 %
10.01.2016 10:35 1,3 C 99 % 1001,6 hPa 0,0 l/m 4,2 km/h (1 Bft) O-NO 66 0 min 0,000 mm 0,0 UV-I 85 W/m 1,2 C 1,3 C 6,4 km/h (2 Bft) 100,00 %
10.01.2016 10:40 1,4 C 99 % 1001,8 hPa 0,0 l/m 1,6 km/h (1 Bft) O-NO 67 0 min 0,000 mm 0,0 UV-I 93 W/m 1,3 C 1,4 C 3,2 km/h (1 Bft) 100,00 %
10.01.2016 10:45 1,4 C 99 % 1001,9 hPa 0,0 l/m 0,0 km/h (0 Bft) NO 45 0 min 0,000 mm 0,0 UV-I 96 W/m 1,3 C 1,4 C 3,2 km/h (1 Bft) 100,00 %
10.01.2016 10:50 1,4 C 99 % 1001,9 hPa 0,0 l/m 0,0 km/h (0 Bft) NO 45 0 min 0,000 mm 0,0 UV-I 96 W/m 1,3 C 1,4 C 3,2 km/h (1 Bft) 100,00 %
10.01.2016 10:55 1,7 C 99 % 1001,9 hPa 0,0 l/m 0,0 km/h (0 Bft) N 0 0 min 0,000 mm 0,0 UV-I 78 W/m 1,6 C 1,7 C 0,0 km/h (0 Bft) 100,00 %
10.01.2016 11:00 1,6 C 99 % 1001,8 hPa 0,0 l/m 0,0 km/h (0 Bft) NO 45 0 min 0,025 mm 0,0 UV-I 71 W/m 1,5 C 1,6 C 1,6 km/h (1 Bft) 99,12 %
10.01.2016 11:05 1,6 C 99 % 1001,7 hPa 0,0 l/m 0,0 km/h (0 Bft) NO 45 0 min 0,000 mm 0,0 UV-I 87 W/m 1,5 C 1,6 C 4,8 km/h (1 Bft) 100,00 %
10.01.2016 11:10 1,6 C 99 % 1001,7 hPa 0,0 l/m 0,0 km/h (0 Bft) NO 45 0 min 0,000 mm 0,0 UV-I 70 W/m 1,5 C 1,6 C 3,2 km/h (1 Bft) 99,12 %
10.01.2016 11:15 1,8 C 99 % 1001,7 hPa 0,0 l/m 1,3 km/h (1 Bft) NO 47 0 min 0,001 mm 0,0 UV-I 80 W/m 1,7 C 1,8 C 3,2 km/h (1 Bft) 96,97 %
10.01.2016 11:19 1,8 C 99 % 1001,7 hPa 0,0 l/m 1,6 km/h (1 Bft) NO 47 0 min 0,000 mm 0,0 UV-I 86 W/m 1,7 C 1,8 C 3,2 km/h (1 Bft) 96,69 %
10.01.2016 11:25 1,9 C 99 % 1001,5 hPa 0,0 l/m 2,6 km/h (1 Bft) O-NO 63 0 min 0,000 mm 0,0 UV-I 90 W/m 1,8 C 1,9 C 4,8 km/h (1 Bft) 96,75 %
10.01.2016 11:30 1,8 C 99 % 1001,3 hPa 0,0 l/m 4,4 km/h (1 Bft) O-SO 115 0 min 0,000 mm 0,0 UV-I 86 W/m 1,7 C 1,8 C 6,4 km/h (2 Bft) 98,11 %
10.01.2016 11:35 1,8 C 99 % 1001,2 hPa 0,0 l/m 6,4 km/h (2 Bft) O-SO 107 0 min 0,000 mm 0,0 UV-I 95 W/m 1,7 C 1,8 C 11,3 km/h (2 Bft) 99,17 %
10.01.2016 11:40 1,8 C 99 % 1001,2 hPa 0,0 l/m 5,1 km/h (1 Bft) O-NO 57 0 min 0,000 mm 0,0 UV-I 118 W/m 1,7 C 1,8 C 12,9 km/h (3 Bft) 99,12 %
10.01.2016 11:45 1,7 C 99 % 1001,3 hPa 0,0 l/m 5,6 km/h (1 Bft) O-SO 111 0 min 0,000 mm 0,0 UV-I 125 W/m 1,6 C 1,7 C 12,9 km/h (3 Bft) 99,19 %
10.01.2016 11:50 1,7 C 99 % 1001,3 hPa 0,0 l/m 8,3 km/h (2 Bft) O-SO 111 0 min 0,000 mm 0,0 UV-I 106 W/m 1,6 C -0,1 C 12,9 km/h (3 Bft) 98,33 %
10.01.2016 11:55 1,6 C 99 % 1001,2 hPa 0,0 l/m 7,2 km/h (2 Bft) O-SO 113 0 min 0,000 mm 0,0 UV-I 93 W/m 1,5 C 0,8 C 12,9 km/h (3 Bft) 100,00 %
10.01.2016 12:00 1,7 C 99 % 1001,3 hPa 0,0 l/m 5,6 km/h (1 Bft) O 90 0 min 0,025 mm 0,0 UV-I 106 W/m 1,6 C 1,7 C 11,3 km/h (2 Bft) 100,00 %
10.01.2016 12:05 1,7 C 99 % 1001,3 hPa 0,0 l/m 1,8 km/h (1 Bft) SO 129 0 min 0,000 mm 0,0 UV-I 96 W/m 1,6 C 1,7 C 6,4 km/h (2 Bft) 100,00 %
10.01.2016 12:10 1,7 C 99 % 1001,4 hPa 0,0 l/m 1,4 km/h (1 Bft) SO 136 0 min 0,000 mm 0,0 UV-I 100 W/m 1,6 C 1,7 C 4,8 km/h (1 Bft) 98,41 %
10.01.2016 12:15 1,8 C 99 % 1001,5 hPa 0,0 l/m 3,0 km/h (1 Bft) O 92 0 min 0,000 mm 0,0 UV-I 122 W/m 1,7 C 1,8 C 6,4 km/h (2 Bft) 100,00 %
10.01.2016 12:20 1,8 C 99 % 1001,5 hPa 0,0 l/m 3,8 km/h (1 Bft) SO 129 0 min 0,000 mm 0,0 UV-I 116 W/m 1,7 C 1,8 C 9,7 km/h (2 Bft) 99,13 %
10.01.2016 12:25 1,7 C 99 % 1001,6 hPa 0,0 l/m 2,9 km/h (1 Bft) SO 146 0 min 0,000 mm 0,0 UV-I 75 W/m 1,6 C 1,7 C 6,4 km/h (2 Bft) 99,17 %
10.01.2016 12:30 1,7 C 99 % 1001,6 hPa 0,0 l/m 1,7 km/h (1 Bft) SO 145 0 min 0,000 mm 0,0 UV-I 78 W/m 1,6 C 1,7 C 4,8 km/h (1 Bft) 99,17 %
10.01.2016 12:35 1,7 C 99 % 1001,4 hPa 0,0 l/m 1,1 km/h (1 Bft) SO 146 0 min 0,000 mm 0,0 UV-I 88 W/m 1,6 C 1,7 C 3,2 km/h (1 Bft) 97,56 %
10.01.2016 12:40 1,7 C 99 % 1001,4 hPa 0,0 l/m 0,9 km/h (0 Bft) S-SO 156 0 min 0,000 mm 0,0 UV-I 62 W/m 1,6 C 1,7 C 4,8 km/h (1 Bft) 100,00 %
10.01.2016 12:45 1,7 C 99 % 1001,2 hPa 0,0 l/m 0,3 km/h (0 Bft) S-SO 156 0 min 0,000 mm 0,0 UV-I 103 W/m 1,6 C 1,7 C 1,6 km/h (1 Bft) 100,00 %
10.01.2016 12:50 1,7 C 99 % 1001,4 hPa 0,0 l/m 0,5 km/h (0 Bft) S-SO 148 0 min 0,000 mm 0,0 UV-I 83 W/m 1,6 C 1,7 C 3,2 km/h (1 Bft) 99,15 %
10.01.2016 12:55 1,7 C 99 % 1001,7 hPa 0,0 l/m 1,1 km/h (1 Bft) S-SW 192 0 min 0,000 mm 0,0 UV-I 24 W/m 1,6 C 1,7 C 3,2 km/h (1 Bft) 99,11 %
10.01.2016 13:00 1,8 C 99 % 1001,8 hPa 0,0 l/m 3,7 km/h (1 Bft) W 280 0 min 0,026 mm 0,0 UV-I 62 W/m 1,7 C 1,8 C 11,3 km/h (2 Bft) 99,19 %
10.01.2016 13:05 1,8 C 99 % 1001,9 hPa 0,0 l/m 2,5 km/h (1 Bft) W-SW 246 0 min 0,000 mm 0,0 UV-I 55 W/m 1,7 C 1,8 C 4,8 km/h (1 Bft) 98,26 %
10.01.2016 13:10 1,9 C 99 % 1002,1 hPa 0,0 l/m 4,9 km/h (1 Bft) SW 234 0 min 0,000 mm 0,0 UV-I 45 W/m 1,8 C 1,9 C 11,3 km/h (2 Bft) 95,54 %
10.01.2016 13:15 1,9 C 99 % 1002,1 hPa 0,0 l/m 6,4 km/h (2 Bft) W-SW 238 0 min 0,000 mm 0,0 UV-I 54 W/m 1,8 C 1,9 C 8,0 km/h (2 Bft) 100,00 %
10.01.2016 13:25 1,9 C 99 % 1001,9 hPa 0,0 l/m 2,9 km/h (1 Bft) W 270 0 min 0,000 mm 0,0 UV-I 55 W/m 1,8 C 1,9 C 6,4 km/h (2 Bft) 97,38 %
10.01.2016 13:30 1,8 C 99 % 1001,9 hPa 0,0 l/m 1,6 km/h (1 Bft) NW 309 0 min 0,000 mm 0,0 UV-I 54 W/m 1,7 C 1,8 C 4,8 km/h (1 Bft) 96,43 %
10.01.2016 13:35 1,8 C 99 % 1002,1 hPa 0,0 l/m 4,0 km/h (1 Bft) W 263 0 min 0,000 mm 0,0 UV-I 48 W/m 1,7 C 1,8 C 11,3 km/h (2 Bft) 98,21 %
10.01.2016 13:40 1,9 C 99 % 1002,5 hPa 0,0 l/m 7,0 km/h (2 Bft) W 277 0 min 0,000 mm 0,0 UV-I 41 W/m 1,8 C 1,3 C 11,3 km/h (2 Bft) 99,17 %
10.01.2016 13:45 1,9 C 99 % 1002,4 hPa 0,0 l/m 4,6 km/h (1 Bft) W 274 0 min 0,000 mm 0,0 UV-I 34 W/m 1,8 C 1,9 C 11,3 km/h (2 Bft) 99,17 %
10.01.2016 13:50 2,0 C 99 % 1002,4 hPa 0,0 l/m 3,4 km/h (1 Bft) W-SW 254 0 min 0,000 mm 0,0 UV-I 34 W/m 1,9 C 2,0 C 11,3 km/h (2 Bft) 98,35 %
10.01.2016 13:55 2,0 C 99 % 1002,4 hPa 0,0 l/m 3,3 km/h (1 Bft) W-SW 242 0 min 0,000 mm 0,0 UV-I 34 W/m 1,9 C 2,0 C 6,4 km/h (2 Bft) 98,20 %
10.01.2016 14:00 1,9 C 99 % 1002,5 hPa 0,0 l/m 5,8 km/h (2 Bft) S 187 0 min 0,025 mm 0,0 UV-I 27 W/m 1,8 C 1,9 C 11,3 km/h (2 Bft) 99,13 %
10.01.2016 14:05 1,9 C 99 % 1002,4 hPa 0,0 l/m 5,4 km/h (1 Bft) W 269 0 min 0,000 mm 0,0 UV-I 30 W/m 1,8 C 1,9 C 9,7 km/h (2 Bft) 99,21 %
10.01.2016 14:10 1,9 C 99 % 1002,1 hPa 0,0 l/m 2,2 km/h (1 Bft) W-SW 248 0 min 0,000 mm 0,0 UV-I 30 W/m 1,8 C 1,9 C 4,8 km/h (1 Bft) 100,00 %
10.01.2016 14:15 1,9 C 99 % 1002,3 hPa 0,0 l/m 1,0 km/h (0 Bft) W-SW 248 0 min 0,000 mm 0,0 UV-I 31 W/m 1,8 C 1,9 C 4,8 km/h (1 Bft) 99,11 %
10.01.2016 14:20 1,9 C 99 % 1002,1 hPa 0,0 l/m 2,1 km/h (1 Bft) S-SO 155 0 min 0,000 mm 0,0 UV-I 39 W/m 1,8 C 1,9 C 4,8 km/h (1 Bft) 99,15 %
10.01.2016 14:25 1,9 C 99 % 1002,3 hPa 0,0 l/m 3,8 km/h (1 Bft) S-SO 167 0 min 0,000 mm 0,0 UV-I 41 W/m 1,8 C 1,9 C 9,7 km/h (2 Bft) 100,00 %
10.01.2016 14:30 2,0 C 99 % 1002,5 hPa 0,0 l/m 5,0 km/h (1 Bft) SW 234 0 min 0,000 mm 0,0 UV-I 32 W/m 1,9 C 2,0 C 8,0 km/h (2 Bft) 100,00 %
10.01.2016 14:35 2,1 C 99 % 1002,6 hPa 0,0 l/m 4,7 km/h (1 Bft) SW 230 0 min 0,000 mm 0,0 UV-I 31 W/m 2,0 C 2,1 C 8,0 km/h (2 Bft) 100,00 %
10.01.2016 14:40 2,0 C 99 % 1002,7 hPa 0,0 l/m 7,8 km/h (2 Bft) SW 215 0 min 0,000 mm 0,0 UV-I 29 W/m 1,9 C 0,6 C 12,9 km/h (3 Bft) 97,39 %
10.01.2016 14:45 2,0 C 99 % 1002,7 hPa 0,0 l/m 7,5 km/h (2 Bft) S 186 0 min 0,000 mm 0,0 UV-I 28 W/m 1,9 C 0,9 C 12,9 km/h (3 Bft) 100,00 %
10.01.2016 14:50 2,0 C 99 % 1002,8 hPa 0,0 l/m 5,6 km/h (1 Bft) S-SO 165 0 min 0,000 mm 0,0 UV-I 26 W/m 1,9 C 2,0 C 9,7 km/h (2 Bft) 98,31 %
10.01.2016 14:55 1,9 C 99 % 1002,8 hPa 0,0 l/m 6,5 km/h (2 Bft) S 184 0 min 0,000 mm 0,0 UV-I 22 W/m 1,8 C 1,8 C 11,3 km/h (2 Bft) 100,00 %
10.01.2016 15:00 1,9 C 99 % 1002,7 hPa 0,0 l/m 4,0 km/h (1 Bft) S-SW 204 0 min 0,000 mm 0,0 UV-I 32 W/m 1,8 C 1,9 C 9,7 km/h (2 Bft) 100,00 %
10.01.2016 15:05 1,9 C 99 % 1002,6 hPa 0,0 l/m 4,1 km/h (1 Bft) SW 234 0 min 0,000 mm 0,0 UV-I 29 W/m 1,8 C 1,9 C 6,4 km/h (2 Bft) 100,00 %
10.01.2016 15:10 2,0 C 99 % 1002,6 hPa 0,0 l/m 4,0 km/h (1 Bft) W 267 0 min 0,000 mm 0,0 UV-I 26 W/m 1,9 C 2,0 C 6,4 km/h (2 Bft) 99,17 %
10.01.2016 15:15 2,0 C 99 % 1002,5 hPa 0,0 l/m 1,7 km/h (1 Bft) W 263 0 min 0,000 mm 0,0 UV-I 20 W/m 1,9 C 2,0 C 4,8 km/h (1 Bft) 96,67 %
10.01.2016 15:20 2,0 C 99 % 1002,5 hPa 0,0 l/m 0,6 km/h (0 Bft) W 263 0 min 0,000 mm 0,0 UV-I 16 W/m 1,9 C 2,0 C 1,6 km/h (1 Bft) 98,21 %
10.01.2016 15:25 1,9 C 99 % 1002,4 hPa 0,0 l/m 0,0 km/h (0 Bft) W 263 0 min 0,000 mm 0,0 UV-I 15 W/m 1,8 C 1,9 C 1,6 km/h (1 Bft) 97,50 %
10.01.2016 15:30 1,9 C 99 % 1002,3 hPa 0,0 l/m 0,0 km/h (0 Bft) W 263 0 min 0,000 mm 0,0 UV-I 21 W/m 1,8 C 1,9 C 0,0 km/h (0 Bft) 97,46 %
10.01.2016 15:35 1,9 C 99 % 1002,3 hPa 0,0 l/m 0,0 km/h (0 Bft) W 263 0 min 0,000 mm 0,0 UV-I 37 W/m 1,8 C 1,9 C 0,0 km/h (0 Bft) 96,43 %
10.01.2016 15:40 1,9 C 99 % 1002,4 hPa 0,0 l/m 0,3 km/h (0 Bft) W 263 0 min 0,000 mm 0,0 UV-I 39 W/m 1,8 C 1,9 C 1,6 km/h (1 Bft) 95,73 %
10.01.2016 15:45 2,0 C 99 % 1002,2 hPa 0,0 l/m 2,8 km/h (1 Bft) SO 128 0 min 0,000 mm 0,0 UV-I 32 W/m 1,9 C 2,0 C 6,4 km/h (2 Bft) 99,19 %
10.01.2016 15:50 2,1 C 99 % 1002,3 hPa 0,0 l/m 2,9 km/h (1 Bft) SO 128 0 min 0,000 mm 0,0 UV-I 31 W/m 2,0 C 2,1 C 4,8 km/h (1 Bft) 99,13 %
10.01.2016 15:55 2,1 C 99 % 1002,2 hPa 0,0 l/m 3,2 km/h (1 Bft) SO 128 0 min 0,000 mm 0,0 UV-I 20 W/m 2,0 C 2,1 C 6,4 km/h (2 Bft) 100,00 %
10.01.2016 16:00 2,1 C 99 % 1002,2 hPa 0,0 l/m 2,7 km/h (1 Bft) SO 126 0 min 0,000 mm 0,0 UV-I 16 W/m 2,0 C 2,1 C 6,4 km/h (2 Bft) 100,00 %
10.01.2016 16:05 2,0 C 99 % 1002,1 hPa 0,0 l/m 5,5 km/h (1 Bft) O-SO 118 0 min 0,000 mm 0,0 UV-I 12 W/m 1,9 C 2,0 C 11,3 km/h (2 Bft) 98,28 %
10.01.2016 16:10 2,0 C 99 % 1002,1 hPa 0,0 l/m 7,0 km/h (2 Bft) S-SO 154 0 min 0,000 mm 0,0 UV-I 10 W/m 1,9 C 1,4 C 12,9 km/h (3 Bft) 99,10 %
10.01.2016 16:15 2,0 C 99 % 1002,0 hPa 0,0 l/m 3,3 km/h (1 Bft) S-SO 153 0 min 0,000 mm 0,0 UV-I 6 W/m 1,9 C 2,0 C 8,0 km/h (2 Bft) 97,64 %
10.01.2016 16:20 2,1 C 99 % 1002,0 hPa 0,0 l/m 3,8 km/h (1 Bft) SO 144 0 min 0,000 mm 0,0 UV-I 6 W/m 2,0 C 2,1 C 11,3 km/h (2 Bft) 99,15 %
10.01.2016 16:25 2,1 C 99 % 1002,4 hPa 0,0 l/m 2,4 km/h (1 Bft) N 350 0 min 0,000 mm 0,0 UV-I 1 W/m 2,0 C 2,1 C 8,0 km/h (2 Bft) 98,35 %
10.01.2016 16:30 1,9 C 99 % 1002,4 hPa 0,0 l/m 1,0 km/h (0 Bft) NW 315 0 min 0,000 mm 0,0 UV-I 0 W/m 1,8 C 1,9 C 3,2 km/h (1 Bft) 99,08 %
10.01.2016 16:35 1,9 C 99 % 1002,1 hPa 0,0 l/m 1,5 km/h (1 Bft) N-NW 342 0 min 0,000 mm 0,0 UV-I 0 W/m 1,8 C 1,9 C 6,4 km/h (2 Bft) 95,73 %
10.01.2016 16:40 1,8 C 99 % 1001,9 hPa 0,0 l/m 2,9 km/h (1 Bft) N-NO 18 0 min 0,000 mm 0,0 UV-I 0 W/m 1,7 C 1,8 C 8,0 km/h (2 Bft) 99,17 %
10.01.2016 16:45 1,9 C 99 % 1001,9 hPa 0,0 l/m 4,9 km/h (1 Bft) NO 53 0 min 0,000 mm 0,0 UV-I 0 W/m 1,8 C 1,9 C 8,0 km/h (2 Bft) 100,00 %
10.01.2016 16:50 1,9 C 99 % 1002,1 hPa 0,0 l/m 6,0 km/h (2 Bft) NO 49 0 min 0,000 mm 0,0 UV-I 0 W/m 1,8 C 1,9 C 8,0 km/h (2 Bft) 98,29 %
10.01.2016 16:55 1,9 C 99 % 1002,2 hPa 0,0 l/m 1,7 km/h (1 Bft) NO 49 0 min 0,000 mm 0,0 UV-I 0 W/m 1,8 C 1,9 C 4,8 km/h (1 Bft) 99,19 %
10.01.2016 17:00 1,8 C 99 % 1002,2 hPa 0,0 l/m 0,4 km/h (0 Bft) NO 49 0 min 0,000 mm 0,0 UV-I 0 W/m 1,7 C 1,8 C 1,6 km/h (1 Bft) 100,00 %
10.01.2016 17:05 1,9 C 99 % 1002,1 hPa 0,0 l/m 0,0 km/h (0 Bft) NO 49 0 min 0,000 mm 0,0 UV-I 0 W/m 1,8 C 1,9 C 0,0 km/h (0 Bft) 100,00 %
10.01.2016 17:10 1,7 C 99 % 1002,1 hPa 0,0 l/m 0,0 km/h (0 Bft) NO 49 0 min 0,000 mm 0,0 UV-I 0 W/m 1,6 C 1,7 C 0,0 km/h (0 Bft) 100,00 %
10.01.2016 17:15 1,6 C 99 % 1001,9 hPa 0,0 l/m 2,4 km/h (1 Bft) N-NO 27 0 min 0,000 mm 0,0 UV-I 0 W/m 1,5 C 1,6 C 6,4 km/h (2 Bft) 98,25 %
10.01.2016 17:20 1,7 C 99 % 1001,8 hPa 0,0 l/m 5,2 km/h (1 Bft) NO 34 0 min 0,000 mm 0,0 UV-I 0 W/m 1,6 C 1,7 C 8,0 km/h (2 Bft) 97,32 %
10.01.2016 17:25 1,7 C 99 % 1001,8 hPa 0,0 l/m 4,8 km/h (1 Bft) NO 40 0 min 0,000 mm 0,0 UV-I 0 W/m 1,6 C 1,7 C 6,4 km/h (2 Bft) 96,97 %
10.01.2016 17:30 1,7 C 99 % 1001,8 hPa 0,0 l/m 2,9 km/h (1 Bft) N-NO 26 0 min 0,000 mm 0,0 UV-I 0 W/m 1,6 C 1,7 C 6,4 km/h (2 Bft) 97,32 %
10.01.2016 17:35 1,7 C 99 % 1001,6 hPa 0,0 l/m 3,5 km/h (1 Bft) N-NO 21 0 min 0,000 mm 0,0 UV-I 0 W/m 1,6 C 1,7 C 8,0 km/h (2 Bft) 97,32 %
10.01.2016 17:40 1,7 C 99 % 1001,6 hPa 0,0 l/m 2,8 km/h (1 Bft) NO 44 0 min 0,000 mm 0,0 UV-I 0 W/m 1,6 C 1,7 C 8,0 km/h (2 Bft) 95,93 %
10.01.2016 17:45 1,8 C 99 % 1001,5 hPa 0,0 l/m 5,3 km/h (1 Bft) NO 51 0 min 0,000 mm 0,0 UV-I 0 W/m 1,7 C 1,8 C 8,0 km/h (2 Bft) 98,31 %
10.01.2016 17:50 1,7 C 99 % 1001,4 hPa 0,0 l/m 5,8 km/h (2 Bft) N 5 0 min 0,000 mm 0,0 UV-I 0 W/m 1,6 C 1,7 C 8,0 km/h (2 Bft) 99,15 %
10.01.2016 17:55 1,6 C 99 % 1001,4 hPa 0,0 l/m 1,4 km/h (1 Bft) N-NO 13 0 min 0,000 mm 0,0 UV-I 0 W/m 1,5 C 1,6 C 4,8 km/h (1 Bft) 99,12 %
10.01.2016 18:00 1,8 C 99 % 1001,8 hPa 0,0 l/m 3,2 km/h (1 Bft) NO 40 0 min 0,000 mm 0,0 UV-I 0 W/m 1,7 C 1,8 C 6,4 km/h (2 Bft) 99,17 %
10.01.2016 18:05 1,8 C 99 % 1001,7 hPa 0,0 l/m 3,0 km/h (1 Bft) O-NO 57 0 min 0,000 mm 0,0 UV-I 0 W/m 1,7 C 1,8 C 4,8 km/h (1 Bft) 99,15 %
10.01.2016 18:10 1,8 C 99 % 1001,7 hPa 0,0 l/m 3,6 km/h (1 Bft) O-NO 59 0 min 0,000 mm 0,0 UV-I 0 W/m 1,7 C 1,8 C 6,4 km/h (2 Bft) 99,08 %
10.01.2016 18:15 1,8 C 99 % 1001,8 hPa 0,0 l/m 2,6 km/h (1 Bft) O-NO 62 0 min 0,000 mm 0,0 UV-I 0 W/m 1,7 C 1,8 C 4,8 km/h (1 Bft) 99,21 %
10.01.2016 18:20 1,8 C 99 % 1001,6 hPa 0,0 l/m 4,8 km/h (1 Bft) O-NO 65 0 min 0,000 mm 0,0 UV-I 0 W/m 1,7 C 1,8 C 9,7 km/h (2 Bft) 98,20 %
10.01.2016 18:25 1,8 C 99 % 1001,3 hPa 0,0 l/m 8,1 km/h (2 Bft) O-NO 65 0 min 0,000 mm 0,0 UV-I 0 W/m 1,7 C 0,2 C 12,9 km/h (3 Bft) 100,00 %
10.01.2016 18:30 1,8 C 99 % 1001,4 hPa 0,0 l/m 5,9 km/h (2 Bft) NO 47 0 min 0,000 mm 0,0 UV-I 0 W/m 1,7 C 1,8 C 11,3 km/h (2 Bft) 99,06 %
10.01.2016 18:35 1,8 C 99 % 1001,2 hPa 0,0 l/m 5,6 km/h (1 Bft) NO 53 0 min 0,000 mm 0,0 UV-I 0 W/m 1,7 C 1,8 C 8,0 km/h (2 Bft) 98,41 %
10.01.2016 18:40 1,8 C 99 % 1001,0 hPa 0,0 l/m 6,3 km/h (2 Bft) NO 53 0 min 0,000 mm 0,0 UV-I 0 W/m 1,7 C 1,8 C 14,5 km/h (3 Bft) 100,00 %
10.01.2016 18:45 1,7 C 99 % 1000,9 hPa 0,0 l/m 8,9 km/h (2 Bft) NO 49 0 min 0,000 mm 0,0 UV-I 0 W/m 1,6 C -0,7 C 14,5 km/h (3 Bft) 98,29 %
10.01.2016 18:50 1,7 C 99 % 1000,7 hPa 0,0 l/m 9,4 km/h (2 Bft) O-NO 69 0 min 0,000 mm 0,0 UV-I 0 W/m 1,6 C -1,1 C 14,5 km/h (3 Bft) 100,00 %
10.01.2016 18:55 1,7 C 99 % 1000,7 hPa 0,0 l/m 10,0 km/h (2 Bft) O-NO 74 0 min 0,000 mm 0,0 UV-I 0 W/m 1,6 C -1,6 C 16,1 km/h (3 Bft) 99,15 %
10.01.2016 19:00 1,6 C 99 % 1000,6 hPa 0,0 l/m 8,0 km/h (2 Bft) O-NO 63 0 min 0,000 mm 0,0 UV-I 0 W/m 1,5 C 0,0 C 12,9 km/h (3 Bft) 99,12 %
10.01.2016 19:05 1,6 C 99 % 1000,6 hPa 0,0 l/m 8,8 km/h (2 Bft) O 83 0 min 0,000 mm 0,0 UV-I 0 W/m 1,5 C -0,7 C 16,1 km/h (3 Bft) 100,00 %
10.01.2016 19:10 1,6 C 99 % 1000,8 hPa 0,0 l/m 5,6 km/h (1 Bft) NO 39 0 min 0,000 mm 0,0 UV-I 0 W/m 1,5 C 1,6 C 11,3 km/h (2 Bft) 99,17 %
10.01.2016 19:15 1,7 C 99 % 1000,7 hPa 0,0 l/m 4,8 km/h (1 Bft) O 93 0 min 0,000 mm 0,0 UV-I 0 W/m 1,6 C 1,7 C 9,7 km/h (2 Bft) 100,00 %
10.01.2016 19:20 1,7 C 99 % 1000,7 hPa 0,0 l/m 9,1 km/h (2 Bft) O-NO 69 0 min 0,000 mm 0,0 UV-I 0 W/m 1,6 C -0,8 C 14,5 km/h (3 Bft) 98,39 %
10.01.2016 19:25 1,6 C 99 % 1000,6 hPa 0,0 l/m 10,8 km/h (2 Bft) O-NO 69 0 min 0,000 mm 0,0 UV-I 0 W/m 1,5 C -2,3 C 16,1 km/h (3 Bft) 97,32 %
10.01.2016 19:30 1,6 C 99 % 1000,4 hPa 0,0 l/m 9,8 km/h (2 Bft) O-NO 71 0 min 0,000 mm 0,0 UV-I 0 W/m 1,5 C -1,5 C 16,1 km/h (3 Bft) 96,58 %
10.01.2016 19:35 1,6 C 99 % 1000,1 hPa 0,0 l/m 9,3 km/h (2 Bft) NO 46 0 min 0,000 mm 0,0 UV-I 0 W/m 1,5 C -1,1 C 16,1 km/h (3 Bft) 97,39 %
10.01.2016 19:40 1,6 C 99 % 1000,1 hPa 0,0 l/m 11,2 km/h (2 Bft) NO 53 0 min 0,000 mm 0,0 UV-I 0 W/m 1,5 C -2,6 C 16,1 km/h (3 Bft) 97,87 %
10.01.2016 19:55 1,5 C 99 % 999,8 hPa 0,0 l/m 13,2 km/h (3 Bft) NO 45 0 min 0,000 mm 0,0 UV-I 0 W/m 1,4 C -4,1 C 20,9 km/h (4 Bft) 97,08 %
10.01.2016 20:00 1,4 C 99 % 999,6 hPa 0,0 l/m 14,0 km/h (3 Bft) O-NO 57 0 min 0,000 mm 0,0 UV-I 0 W/m 1,3 C -4,7 C 20,9 km/h (4 Bft) 98,21 %
10.01.2016 20:05 1,4 C 99 % 999,6 hPa 0,0 l/m 12,0 km/h (2 Bft) NO 41 0 min 0,000 mm 0,0 UV-I 0 W/m 1,3 C -3,4 C 17,7 km/h (3 Bft) 100,00 %
10.01.2016 20:10 1,4 C 99 % 999,7 hPa 0,0 l/m 8,8 km/h (2 Bft) NO 53 0 min 0,000 mm 0,0 UV-I 0 W/m 1,3 C -0,9 C 14,5 km/h (3 Bft) 99,15 %
10.01.2016 20:15 1,3 C 99 % 999,6 hPa 0,0 l/m 10,6 km/h (2 Bft) O-NO 59 0 min 0,000 mm 0,0 UV-I 0 W/m 1,2 C -2,5 C 17,7 km/h (3 Bft) 100,00 %
10.01.2016 20:20 1,3 C 99 % 999,4 hPa 0,0 l/m 10,7 km/h (2 Bft) O-NO 67 0 min 0,000 mm 0,0 UV-I 0 W/m 1,2 C -2,6 C 14,5 km/h (3 Bft) 98,17 %
10.01.2016 20:25 1,2 C 99 % 999,6 hPa 0,0 l/m 8,6 km/h (2 Bft) NO 50 0 min 0,000 mm 0,0 UV-I 0 W/m 1,1 C -0,9 C 14,5 km/h (3 Bft) 99,21 %
10.01.2016 20:30 1,2 C 99 % 999,6 hPa 0,0 l/m 5,0 km/h (1 Bft) NO 36 0 min 0,000 mm 0,0 UV-I 0 W/m 1,1 C 1,2 C 8,0 km/h (2 Bft) 99,15 %
10.01.2016 20:35 1,2 C 99 % 999,7 hPa 0,0 l/m 4,7 km/h (1 Bft) NO 44 0 min 0,000 mm 0,0 UV-I 0 W/m 1,1 C 1,2 C 8,0 km/h (2 Bft) 99,07 %
10.01.2016 20:40 1,2 C 99 % 999,7 hPa 0,0 l/m 5,3 km/h (1 Bft) NO 51 0 min 0,000 mm 0,0 UV-I 0 W/m 1,1 C 1,2 C 8,0 km/h (2 Bft) 98,39 %
10.01.2016 20:45 1,1 C 99 % 999,5 hPa 0,0 l/m 5,1 km/h (1 Bft) NO 42 0 min 0,000 mm 0,0 UV-I 0 W/m 1,0 C 1,1 C 8,0 km/h (2 Bft) 99,06 %
10.01.2016 20:50 1,1 C 99 % 999,6 hPa 0,0 l/m 3,8 km/h (1 Bft) NO 36 0 min 0,000 mm 0,0 UV-I 0 W/m 1,0 C 1,1 C 6,4 km/h (2 Bft) 99,17 %
10.01.2016 20:55 1,0 C 99 % 999,7 hPa 0,0 l/m 0,9 km/h (0 Bft) N-NO 24 0 min 0,000 mm 0,0 UV-I 0 W/m 0,9 C 1,0 C 4,8 km/h (1 Bft) 100,00 %
10.01.2016 21:00 1,1 C 99 % 999,7 hPa 0,0 l/m 0,5 km/h (0 Bft) N-NO 24 0 min 0,000 mm 0,0 UV-I 0 W/m 1,0 C 1,1 C 3,2 km/h (1 Bft) 99,15 %
10.01.2016 21:05 1,1 C 99 % 999,7 hPa 0,0 l/m 1,3 km/h (1 Bft) N-NO 17 0 min 0,000 mm 0,0 UV-I 0 W/m 1,0 C 1,1 C 3,2 km/h (1 Bft) 100,00 %
10.01.2016 21:10 1,1 C 99 % 1000,0 hPa 0,0 l/m 0,4 km/h (0 Bft) N-NO 17 0 min 0,000 mm 0,0 UV-I 0 W/m 1,0 C 1,1 C 3,2 km/h (1 Bft) 98,26 %
10.01.2016 21:15 1,1 C 99 % 1000,0 hPa 0,0 l/m 0,9 km/h (0 Bft) N-NO 17 0 min 0,000 mm 0,0 UV-I 0 W/m 1,0 C 1,1 C 3,2 km/h (1 Bft) 100,00 %
10.01.2016 21:25 1,2 C 99 % 999,9 hPa 0,0 l/m 0,0 km/h (0 Bft) NW 315 0 min 0,000 mm 0,0 UV-I 0 W/m 1,1 C 1,2 C 1,6 km/h (1 Bft) 97,73 %
10.01.2016 21:30 1,1 C 99 % 999,9 hPa 0,0 l/m 0,3 km/h (0 Bft) NW 315 0 min 0,000 mm 0,0 UV-I 0 W/m 1,0 C 1,1 C 1,6 km/h (1 Bft) 96,77 %
10.01.2016 21:35 1,1 C 99 % 999,8 hPa 0,0 l/m 0,5 km/h (0 Bft) NW 316 0 min 0,000 mm 0,0 UV-I 0 W/m 1,0 C 1,1 C 1,6 km/h (1 Bft) 97,46 %
10.01.2016 21:40 1,1 C 99 % 999,8 hPa 0,0 l/m 0,9 km/h (0 Bft) N 5 0 min 0,000 mm 0,0 UV-I 0 W/m 1,0 C 1,1 C 3,2 km/h (1 Bft) 98,21 %
10.01.2016 21:45 1,1 C 99 % 999,7 hPa 0,0 l/m 1,6 km/h (1 Bft) N 10 0 min 0,000 mm 0,0 UV-I 0 W/m 1,0 C 1,1 C 4,8 km/h (1 Bft) 97,50 %
10.01.2016 21:50 1,1 C 99 % 999,8 hPa 0,0 l/m 0,6 km/h (0 Bft) N 350 0 min 0,000 mm 0,0 UV-I 0 W/m 1,0 C 1,1 C 3,2 km/h (1 Bft) 95,65 %
10.01.2016 21:55 1,2 C 99 % 1000,0 hPa 0,0 l/m 4,3 km/h (1 Bft) S-SW 204 0 min 0,000 mm 0,0 UV-I 0 W/m 1,1 C 1,2 C 8,0 km/h (2 Bft) 96,49 %
10.01.2016 22:00 1,2 C 99 % 1000,2 hPa 0,0 l/m 4,2 km/h (1 Bft) W-SW 255 0 min 0,000 mm 0,0 UV-I 0 W/m 1,1 C 1,2 C 6,4 km/h (2 Bft) 99,19 %
10.01.2016 22:05 1,2 C 99 % 1000,4 hPa 0,0 l/m 4,5 km/h (1 Bft) W 269 0 min 0,000 mm 0,0 UV-I 0 W/m 1,1 C 1,2 C 6,4 km/h (2 Bft) 98,21 %
10.01.2016 22:10 1,2 C 99 % 1000,8 hPa 0,0 l/m 5,5 km/h (1 Bft) W 275 0 min 0,000 mm 0,0 UV-I 0 W/m 1,1 C 1,2 C 11,3 km/h (2 Bft) 98,33 %
10.01.2016 22:15 1,3 C 99 % 1000,7 hPa 0,0 l/m 6,0 km/h (2 Bft) W-SW 257 0 min 0,000 mm 0,0 UV-I 0 W/m 1,2 C 1,3 C 11,3 km/h (2 Bft) 99,11 %
10.01.2016 22:20 1,3 C 99 % 1000,7 hPa 0,0 l/m 5,4 km/h (1 Bft) SW 232 0 min 0,000 mm 0,0 UV-I 0 W/m 1,2 C 1,3 C 8,0 km/h (2 Bft) 100,00 %
10.01.2016 22:25 1,3 C 99 % 1000,5 hPa 0,0 l/m 6,8 km/h (2 Bft) S-SW 202 0 min 0,000 mm 0,0 UV-I 0 W/m 1,2 C 0,9 C 11,3 km/h (2 Bft) 99,11 %
10.01.2016 22:30 1,3 C 99 % 1000,6 hPa 0,0 l/m 8,6 km/h (2 Bft) S 177 0 min 0,000 mm 0,0 UV-I 0 W/m 1,2 C -0,8 C 12,9 km/h (3 Bft) 97,52 %
10.01.2016 22:35 1,4 C 99 % 1000,6 hPa 0,0 l/m 10,7 km/h (2 Bft) S-SW 194 0 min 0,000 mm 0,0 UV-I 0 W/m 1,3 C -2,4 C 17,7 km/h (3 Bft) 100,00 %
10.01.2016 22:40 1,4 C 99 % 1000,5 hPa 0,0 l/m 12,0 km/h (2 Bft) S-SW 192 0 min 0,000 mm 0,0 UV-I 0 W/m 1,3 C -3,4 C 19,3 km/h (3 Bft) 99,11 %
10.01.2016 22:45 1,4 C 99 % 1000,3 hPa 0,0 l/m 9,8 km/h (2 Bft) S-SW 196 0 min 0,000 mm 0,0 UV-I 0 W/m 1,3 C -1,7 C 17,7 km/h (3 Bft) 98,26 %
10.01.2016 22:50 1,4 C 99 % 999,9 hPa 0,0 l/m 8,2 km/h (2 Bft) S 186 0 min 0,000 mm 0,0 UV-I 0 W/m 1,3 C -0,4 C 16,1 km/h (3 Bft) 99,15 %
10.01.2016 22:55 1,4 C 99 % 1000,0 hPa 0,0 l/m 10,7 km/h (2 Bft) S-SW 196 0 min 0,000 mm 0,0 UV-I 0 W/m 1,3 C -2,4 C 17,7 km/h (3 Bft) 100,00 %
10.01.2016 23:00 1,3 C 99 % 1000,4 hPa 0,0 l/m 10,4 km/h (2 Bft) S-SW 196 0 min 0,000 mm 0,0 UV-I 0 W/m 1,2 C -2,3 C 19,3 km/h (3 Bft) 99,13 %
10.01.2016 23:05 1,4 C 99 % 1000,3 hPa 0,0 l/m 8,0 km/h (2 Bft) S-SW 200 0 min 0,000 mm 0,0 UV-I 0 W/m 1,3 C -0,2 C 14,5 km/h (3 Bft) 97,44 %
10.01.2016 23:10 1,4 C 99 % 1000,0 hPa 0,0 l/m 8,1 km/h (2 Bft) SO 134 0 min 0,000 mm 0,0 UV-I 0 W/m 1,3 C -0,3 C 16,1 km/h (3 Bft) 100,00 %
10.01.2016 23:15 1,3 C 99 % 1000,0 hPa 0,0 l/m 12,2 km/h (2 Bft) S-SW 205 0 min 0,000 mm 0,0 UV-I 0 W/m 1,2 C -3,6 C 22,5 km/h (4 Bft) 99,12 %
10.01.2016 23:20 1,4 C 99 % 1000,3 hPa 0,0 l/m 13,4 km/h (3 Bft) S-SW 196 0 min 0,000 mm 0,0 UV-I 0 W/m 1,3 C -4,3 C 22,5 km/h (4 Bft) 99,15 %
10.01.2016 23:25 1,4 C 99 % 1000,3 hPa 0,0 l/m 9,4 km/h (2 Bft) W-SW 240 0 min 0,000 mm 0,0 UV-I 0 W/m 1,3 C -1,4 C 20,9 km/h (4 Bft) 99,17 %
10.01.2016 23:30 1,4 C 99 % 1000,4 hPa 0,0 l/m 7,6 km/h (2 Bft) S-SW 192 0 min 0,000 mm 0,0 UV-I 0 W/m 1,3 C 0,2 C 12,9 km/h (3 Bft) 97,39 %
10.01.2016 23:35 1,3 C 99 % 1000,1 hPa 0,0 l/m 7,2 km/h (2 Bft) S-SW 192 0 min 0,000 mm 0,0 UV-I 0 W/m 1,2 C 0,5 C 11,3 km/h (2 Bft) 98,17 %
10.01.2016 23:40 1,3 C 99 % 1000,1 hPa 0,0 l/m 7,0 km/h (2 Bft) S-SW 194 0 min 0,000 mm 0,0 UV-I 0 W/m 1,2 C 0,7 C 12,9 km/h (3 Bft) 94,92 %
10.01.2016 23:45 1,3 C 99 % 1000,2 hPa 0,0 l/m 6,5 km/h (2 Bft) S-SO 167 0 min 0,000 mm 0,0 UV-I 0 W/m 1,2 C 1,2 C 11,3 km/h (2 Bft) 97,62 %
10.01.2016 23:50 1,2 C 99 % 1000,3 hPa 0,0 l/m 6,9 km/h (2 Bft) W-SW 254 0 min 0,000 mm 0,0 UV-I 0 W/m 1,1 C 0,7 C 16,1 km/h (3 Bft) 95,76 %
10.01.2016 23:55 1,2 C 99 % 1000,2 hPa 0,0 l/m 4,3 km/h (1 Bft) S-SW 196 0 min 0,000 mm 0,0 UV-I 0 W/m 1,1 C 1,2 C 6,4 km/h (2 Bft) 94,74 %
_ Min-Zeit 00:05 00:00 20:20 - 02:20 - - - - - - 00:00 20:00 10:55 08:55
Minimum _ 0,4 C 98 % 999,4 hPa - 0,0 km/h (0 Bft) - - - - - - 0,1 C -4,7 C 0,0 km/h (0 Bft) 94,50 %
_ Max-Zeit 13:55 08:20 00:00 01:05 20:00 - - 00:00 13:00 00:00 11:45 14:35 14:35 23:15 00:00
Maximum _ 2,1 C 99 % 1004,1 hPa 0,2 l/m 14,0 km/h
O-NO (3 Bft)
- - 0 min 0,026 mm 0,0 UV-I 125 W/m 2,0 C 2,1 C 22,5 km/h
S (4 Bft)
100,00 %
Durchschnitt _ 1,1 C 99 % 1001,8 hPa #0,6 l/m 4,1 km/h (1 Bft) O-NO - #0 min. #0,127 mm 0,0 UV-I 53 W/m 1,0 C 0,7 C 7,6 km/h (2 Bft) 98,48 %